TimeHST,TemperatureF,Dew PointF,Humidity,Sea Level PressureIn,VisibilityMPH,Wind Direction,Wind SpeedMPH,Gust SpeedMPH,PrecipitationIn,Events,Conditions,WindDirDegrees,DateUTC
12:16 AM,37.4,24.8,60,29.92,10.0,NW,25.3,42.6,N/A,,Scattered Clouds,320,2014-02-13 10:16:00
12:36 AM,37.4,24.8,60,29.92,10.0,NW,26.5,43.7,N/A,,Scattered Clouds,310,2014-02-13 10:36:00
12:56 AM,37.4,26.6,65,29.92,10.0,NW,23.0,41.4,N/A,,Mostly Cloudy,310,2014-02-13 10:56:00
1:16 AM,35.6,26.6,70,29.91,10.0,NW,24.2,38.0,N/A,,Mostly Cloudy,320,2014-02-13 11:16:00
1:36 AM,37.4,26.6,65,29.92,10.0,NNW,28.8,38.0,N/A,,Mostly Cloudy,330,2014-02-13 11:36:00
1:56 AM,35.6,28.4,75,29.92,8.0,NNW,28.8,36.8,N/A,,Mostly Cloudy,340,2014-02-13 11:56:00
2:16 AM,33.8,28.4,81,29.93,3.0,NNW,25.3,32.2,N/A,,Mostly Cloudy,340,2014-02-13 12:16:00
2:36 AM,33.8,28.4,81,29.93,5.0,North,26.5,32.2,N/A,,Overcast,350,2014-02-13 12:36:00
2:56 AM,33.8,28.4,81,29.93,9.0,North,27.6,35.7,0.01,,Mostly Cloudy,350,2014-02-13 12:56:00
3:16 AM,35.6,28.4,75,29.94,10.0,NNW,28.8,35.7,N/A,,Overcast,340,2014-02-13 13:16:00
3:36 AM,35.6,26.6,70,29.95,10.0,North,23.0,35.7,N/A,,Overcast,350,2014-02-13 13:36:00
3:56 AM,35.6,26.6,70,29.95,10.0,NNW,26.5,34.5,N/A,,Mostly Cloudy,340,2014-02-13 13:56:00
4:16 AM,35.6,26.6,70,29.95,10.0,North,25.3,33.4,N/A,,Scattered Clouds,350,2014-02-13 14:16:00
4:36 AM,35.6,26.6,70,29.96,10.0,North,24.2,31.1,N/A,,Mostly Cloudy,350,2014-02-13 14:36:00
4:56 AM,35.6,28.4,75,29.97,9.0,NNW,26.5,40.3,N/A,,Mostly Cloudy,340,2014-02-13 14:56:00
5:16 AM,35.6,28.4,75,29.98,10.0,NNW,21.9,34.5,N/A,,Mostly Cloudy,340,2014-02-13 15:16:00
5:36 AM,35.6,28.4,75,29.98,10.0,North,23.0,36.8,N/A,,Mostly Cloudy,350,2014-02-13 15:36:00
5:56 AM,35.6,28.4,75,29.99,9.0,North,27.6,33.4,N/A,,Mostly Cloudy,350,2014-02-13 15:56:00
6:16 AM,35.6,28.4,75,29.99,10.0,NNW,21.9,31.1,N/A,,Mostly Cloudy,340,2014-02-13 16:16:00
6:36 AM,35.6,28.4,75,29.99,10.0,North,24.2,32.2,N/A,,Mostly Cloudy,350,2014-02-13 16:36:00
6:56 AM,35.6,30.2,81,30.01,10.0,NNE,19.6,31.1,N/A,,Overcast,20,2014-02-13 16:56:00
7:16 AM,35.6,28.4,75,30.02,10.0,NNE,15.0,24.2,N/A,,Mostly Cloudy,20,2014-02-13 17:16:00
7:36 AM,33.8,28.4,81,30.03,10.0,NNE,15.0,23.0,N/A,,Scattered Clouds,30,2014-02-13 17:36:00
7:56 AM,33.8,28.4,81,30.05,10.0,NNE,9.2,-,N/A,,Mostly Cloudy,30,2014-02-13 17:56:00
8:16 AM,33.8,26.6,75,30.06,10.0,NNE,8.1,-,N/A,,Mostly Cloudy,30,2014-02-13 18:16:00
8:36 AM,33.8,28.4,81,30.07,10.0,NNE,6.9,-,N/A,,Overcast,30,2014-02-13 18:36:00
8:56 AM,33.8,26.6,75,30.09,10.0,NNE,10.4,-,N/A,,Overcast,30,2014-02-13 18:56:00
9:36 AM,33.8,26.6,75,30.12,10.0,NNE,9.2,-,N/A,,Overcast,30,2014-02-13 19:36:00
9:56 AM,33.8,26.6,75,30.13,10.0,NNE,8.1,-,N/A,,Overcast,20,2014-02-13 19:56:00
10:16 AM,33.8,26.6,75,30.14,10.0,North,5.8,-,N/A,,Mostly Cloudy,10,2014-02-13 20:16:00
10:36 AM,33.8,26.6,75,30.15,10.0,NNE,6.9,-,N/A,,Mostly Cloudy,30,2014-02-13 20:36:00
10:56 AM,33.8,26.6,75,30.15,10.0,NE,6.9,-,N/A,,Overcast,50,2014-02-13 20:56:00
11:16 AM,33.8,26.6,75,30.15,10.0,NE,9.2,-,N/A,,Overcast,40,2014-02-13 21:16:00
11:36 AM,33.8,26.6,75,30.15,10.0,NNE,4.6,-,N/A,,Overcast,30,2014-02-13 21:36:00
11:56 AM,33.8,26.6,75,30.15,10.0,NNE,8.1,-,N/A,,Overcast,30,2014-02-13 21:56:00
12:16 PM,33.8,26.6,75,30.14,10.0,NNE,8.1,-,N/A,,Overcast,20,2014-02-13 22:16:00
12:36 PM,33.8,26.6,75,30.14,10.0,North,8.1,-,N/A,,Overcast,10,2014-02-13 22:36:00
12:56 PM,33.8,24.8,70,30.14,10.0,North,6.9,-,N/A,,Overcast,10,2014-02-13 22:56:00
1:16 PM,33.8,24.8,70,30.14,10.0,North,8.1,-,N/A,,Overcast,10,2014-02-13 23:16:00
1:36 PM,33.8,24.8,70,30.14,10.0,North,8.1,-,N/A,,Overcast,350,2014-02-13 23:36:00
1:56 PM,35.6,26.6,70,30.13,10.0,North,9.2,-,N/A,,Overcast,360,2014-02-13 23:56:00
2:16 PM,33.8,26.6,75,30.14,9.0,North,8.1,-,N/A,,Overcast,10,2014-02-14 00:16:00
2:36 PM,33.8,26.6,75,30.14,10.0,North,9.2,-,N/A,,Overcast,360,2014-02-14 00:36:00
2:56 PM,33.8,26.6,75,30.14,6.0,North,10.4,-,N/A,,Overcast,360,2014-02-14 00:56:00
3:16 PM,33.8,26.6,75,30.14,8.0,North,9.2,-,N/A,,Overcast,10,2014-02-14 01:16:00
3:36 PM,33.8,26.6,75,30.14,7.0,North,9.2,-,N/A,,Overcast,10,2014-02-14 01:36:00
3:56 PM,33.8,26.6,75,30.13,7.0,North,8.1,-,N/A,,Overcast,10,2014-02-14 01:56:00
4:16 PM,33.8,26.6,75,30.13,5.0,North,8.1,-,N/A,,Overcast,360,2014-02-14 02:16:00
4:36 PM,32.0,26.6,80,30.13,4.0,North,9.2,-,N/A,,Overcast,10,2014-02-14 02:36:00
4:56 PM,32.0,26.6,80,30.12,3.0,North,10.4,-,N/A,,Overcast,10,2014-02-14 02:56:00
5:16 PM,32.0,26.6,80,30.12,3.0,North,8.1,-,N/A,,Overcast,10,2014-02-14 03:16:00
5:36 PM,32.0,26.6,80,30.12,5.0,North,9.2,-,N/A,,Overcast,10,2014-02-14 03:36:00
5:56 PM,32.0,26.6,80,30.13,5.0,North,9.2,-,N/A,,Overcast,10,2014-02-14 03:56:00
6:16 PM,30.2,26.6,86,30.12,3.0,North,10.4,-,N/A,,Overcast,10,2014-02-14 04:16:00
6:36 PM,30.2,26.6,86,30.12,4.0,North,10.4,-,N/A,,Overcast,10,2014-02-14 04:36:00
6:56 PM,30.2,26.6,86,30.12,5.0,North,8.1,-,N/A,,Overcast,10,2014-02-14 04:56:00
7:16 PM,30.2,26.6,86,30.12,5.0,North,8.1,-,N/A,,Overcast,10,2014-02-14 05:16:00
7:36 PM,30.2,26.6,86,30.12,5.0,NNE,5.8,-,N/A,,Overcast,30,2014-02-14 05:36:00
7:56 PM,30.2,26.6,86,30.12,5.0,NNE,4.6,-,N/A,,Overcast,20,2014-02-14 05:56:00
8:16 PM,30.2,26.6,86,30.12,9.0,NE,3.5,-,N/A,,Overcast,40,2014-02-14 06:16:00
8:36 PM,30.2,26.6,86,30.12,4.0,North,3.5,-,N/A,,Overcast,10,2014-02-14 06:36:00
8:56 PM,30.2,26.6,86,30.12,3.0,NNE,5.8,-,N/A,,Overcast,20,2014-02-14 06:56:00
9:16 PM,30.2,26.6,86,30.12,3.0,North,6.9,-,N/A,,Overcast,360,2014-02-14 07:16:00
9:36 PM,30.2,26.6,86,30.11,3.0,NNE,3.5,-,N/A,,Overcast,20,2014-02-14 07:36:00
9:56 PM,30.2,24.8,80,30.11,4.0,Calm,Calm,-,N/A,,Overcast,0,2014-02-14 07:56:00
10:16 PM,30.2,26.6,86,30.10,6.0,Calm,Calm,-,N/A,,Overcast,0,2014-02-14 08:16:00
10:36 PM,30.2,26.6,86,30.10,6.0,Calm,Calm,-,N/A,,Overcast,0,2014-02-14 08:36:00
10:56 PM,30.2,26.6,86,30.09,8.0,NE,4.6,-,N/A,,Overcast,40,2014-02-14 08:56:00
11:16 PM,30.2,24.8,80,30.08,10.0,Calm,Calm,-,N/A,,Overcast,0,2014-02-14 09:16:00
11:36 PM,30.2,24.8,80,30.08,5.0,Calm,Calm,-,N/A,,Overcast,0,2014-02-14 09:36:00
11:56 PM,28.4,24.8,86,30.07,9.0,Calm,Calm,-,N/A,,Overcast,0,2014-02-14 09:56:00